Location: Grossmotten
(48.5500°N, 15.3833°E)
Time: 12:12:40
(UTC+00:00)

Cosmos 1315 Rocket - Pass Details

Date: 15 November 2019
Orbit: 530 x 568 km, 81.2° (Epoch: 10 December)

Event Time Altitude Azimuth Distance (km) Brightness Sun altitude
Rises 05:17:42 0° 354° (N) 2,710 6.1 -8.2°
Reaches altitude 10° 05:19:59 10° 3° (N) 1,819 5.3 -7.8°
Maximum altitude 05:23:44 39° 72° (ENE) 840 4.3 -7.2°
Drops below altitude 10° 05:27:32 10° 142° (SE) 1,826 6.5 -6.6°
Sets 05:29:48 0° 151° (SSE) 2,722 7.2 -6.3°
